EW5897 Weather Reports


Display with metric or nautical units.
time (UTC)temp
F
wind
direction
speed
MPH
gust
MPH
rain 1hr
in
rain 24hr
in
rain mn
in
humidity
%
barometer
mb
20260505094912 26 281 5.0 8.0 0.00 0.00 0.00 79 1012.7
20260505093353 26 273 6.0 8.0 0.00 0.00 0.00 80 1012.5
20260505091403 25 296 3.0 5.0 0.00 0.00 0.00 82 1012.3
20260505085856 25 282 3.0 5.0 0.00 0.00 0.00 80 1012.3
20260505083901 24 285 3.0 5.0 0.00 0.00 0.00 81 1012.2
20260505081856 24 296 2.0 4.0 0.00 0.00 0.00 78 1012.1
20260505075904 26 309 3.0 4.0 0.00 0.00 0.00 76 1012.0
20260505074357 27 328 3.0 11.0 0.00 0.00 0.00 74 1011.9
20260505072408 26 322 3.0 5.0 0.00 0.00 0.00 75 1011.9
20260505070859 26 282 1.0 4.0 0.00 0.00 0.00 74 1011.8
20260505065356 28 334 2.0 5.0 0.00 0.00 0.00 69 1011.9
20260505063851 29 327 3.0 6.0 0.00 0.00 0.00 69 1011.7
20260505061855 29 340 5.0 12.0 0.00 0.00 0.00 67 1011.5
20260505055919 30 344 4.0 8.0 0.00 0.00 0.00 67 1011.6
20260505053906 29 323 4.0 10.0 0.00 0.00 0.00 68 1011.5
20260505052405 29 316 2.0 4.0 0.00 0.00 0.00 68 1011.3
20260505040900 33 329 4.0 9.0 0.00 0.00 0.00 59 1010.7
20260505034912 34 311 5.0 10.0 0.00 0.00 0.00 56 1010.5
20260505032914 35 332 6.0 13.0 0.00 0.00 0.00 54 1010.4
20260505030907 36 315 11.0 17.0 0.00 0.00 0.00 50 1010.3
20260505024912 37 319 14.0 18.0 0.00 0.00 0.00 48 1010.0
20260505023359 37 327 8.0 12.0 0.00 0.00 0.00 50 1009.9
20260505021405 37 330 11.0 17.0 0.00 0.00 0.00 47 1009.5
20260505014910 38 325 11.0 20.0 0.00 0.00 0.00 47 1009.4
20260505012909 38 324 14.0 21.0 0.00 0.00 0.00 50 1009.2
20260505011352 38 323 14.0 21.0 0.00 0.00 0.00 51 1009.2
20260505005359 39 306 16.0 26.0 0.00 0.00 0.00 48 1009.1
20260505003355 39 307 16.0 25.0 0.00 0.00 0.00 49 1009.0
20260505000908 40 322 12.0 22.0 0.00 0.00 0.00 45 1009.1
20260504234905 39 311 16.0 22.0 0.00 0.00 0.00 49 1009.0
20260504232911 41 315 18.0 27.0 0.00 0.00 0.00 46 1008.9
20260504230910 39 313 17.0 25.0 0.00 0.00 0.00 49 1008.8
20260504225349 39 317 17.0 26.0 0.00 0.00 0.00 48 1008.7
20260504223403 41 310 18.0 29.0 0.00 0.00 0.00 47 1008.6
20260504221408 40 322 16.0 26.0 0.00 0.00 0.00 48 1008.4
20260504215404 40 309 16.0 27.0 0.00 0.00 0.00 49 1008.3
20260504213406 40 321 14.0 25.0 0.00 0.00 0.00 49 1008.3
20260504211356 40 317 16.0 24.0 0.00 0.00 0.00 48 1008.2
20260504205409 39 333 16.0 28.0 0.00 0.00 0.00 50 1008.2
20260504203408 38 299 16.0 24.0 0.00 0.00 0.00 59 1008.4
20260504201407 39 331 17.0 30.0 0.00 0.00 0.00 57 1008.1
20260504195851 37 306 18.0 26.0 0.00 0.00 0.00 60 1008.0
20260504193909 36 311 19.0 27.0 0.00 0.00 0.00 64 1007.9
20260504191904 36 320 15.0 23.0 0.00 0.00 0.00 65 1008.1
20260504185907 36 309 18.0 24.0 0.00 0.00 0.00 65 1007.7
20260504183853 35 338 16.0 23.0 0.00 0.00 0.00 65 1007.7
20260504181906 34 323 17.0 25.0 0.00 0.00 0.00 68 1007.6
20260504175911 34 322 14.0 24.0 0.00 0.00 0.00 69 1007.6
20260504173910 35 317 19.0 25.0 0.00 0.00 0.00 67 1007.2
20260504172346 35 321 17.0 26.0 0.00 0.00 0.00 68 1007.2
20260504170411 34 290 15.0 25.0 0.00 0.00 0.00 74 1006.9
20260504150857 33 302 18.0 26.0 0.00 0.00 0.00 68 1006.0
20260504140909 33 304 18.0 23.0 0.00 0.00 0.00 65 1005.6
20260504110410 33 316 8.0 17.0 0.00 0.00 0.00 84 1003.2